Regional Weather Roundup
Issued by NWS

Home | Current Version | Previous Version | Text Only | Print | Product List | Glossary Off
Versions: 1 2 3 4 5 6 7 8 9 10 11 12 13 14 15 16 17 18 19 20 21 22 23 24 25 26 27 28 29 30 31 32 33 34 35 36 37 38 39 40 41 42 43 44 45 46 47 48 49 50

435
ASUS44 KLIX 220510
RWRLA
LOUISIANA WEATHER ROUNDUP
NATIONAL WEATHER SERVICE NEW ORLEANS LA
1200 AM CDT MON SEP 22 2014

NOTE: "FAIR" INDICATES FEW OR NO CLOUDS BELOW 12,000 FEET WITH NO
      SIGNIFICANT WEATHER AND/OR OBSTRUCTIONS TO VISIBILITY.
      SKY/WX - SKY CONDITION AND SIGNIFICANT WEATHER.
      TMP - AIR TEMPERATURE.    DP   - DEWPOINT TEMPERATURE.
      RH  - RELATIVE HUMIDITY.  PRES - PRESSURE.
      HX  - HEAT INDEX.         WCI  - WIND CHILL INDEX.

*  THESE STATIONS ARE NOT NWS OR FAA STATIONS AND ARE NOT UNDER
   NWS QUALITY CONTROL.

LAZ040-048-061>063-065-066-069-220600-
SOUTHEAST LOUISIANA

CITY           SKY/WX    TMP DP  RH WIND       PRES   REMARKS
N.O. AUDUBON   NOT AVBL
N.O. INTL ARPT PTCLDY    76  67  73 CALM      30.01F
N.O. LAKEFRONT CLEAR     78  71  79 CALM      30.02S
N.O. DOWNTOWN* FAIR      81  66  61 SE3       30.02S
SLIDELL        CLEAR     71  67  87 CALM      30.01S
BATON ROUGE    CLEAR     70  68  93 CALM      30.03R
BOOTHVILLE     CLEAR     79  73  82 E3        30.00S
BELLE CHASSE   CLEAR     71  67  87 CALM      30.00F
BOGALUSA*      FAIR      70  66  89 CALM      30.03S
GALLIANO*      NOT AVBL
NEW ROADS*     FAIR      70  69  96 CALM      30.03S
GONZALES*      FAIR      70  70 100 CALM      30.02S
HAMMOND*       CLEAR     70  66  88 CALM      30.04R
HOUMA*         CLEAR     71  66  83 CALM      30.02S
PORT FOURCHON* CLEAR     79  73  83 E5        30.03S

$$

LAZ041-044-053-054-220600-
SOUTHWEST LOUISIANA

CITY           SKY/WX    TMP DP  RH WIND       PRES   REMARKS
LAKE CHARLES   CLEAR     73  71  93 CALM      30.02F
LAFAYETTE      CLEAR     74  73  97 CALM      30.03S
PATTERSON      CLEAR     70  70 100 CALM      30.05R
SALT POINT       N/A     76  71  85 CALM      30.02R
NEW IBERIA     CLEAR     72  69  90 CALM      30.03S
CHENAULT AIRPK CLEAR     74  73  96 CALM      30.03F

$$

LAZ027-028-220600-
CENTRAL LOUISIANA

CITY           SKY/WX    TMP DP  RH WIND       PRES   REMARKS
FORT POLK      CLEAR     74  71  91 CALM      30.04F
ALEXANDRIA INT CLEAR     72  70  93 CALM      30.02S
ALEXANDRIA     CLEAR     72  70  93 CALM      30.03F

$$

LAZ001-002-220600-
NORTHWEST LOUISIANA

CITY           SKY/WX    TMP DP  RH WIND       PRES   REMARKS
SHREVEPORT     PTCLDY    80  69  69 N5        30.05S
BARKSDALE AFB  PTCLDY    76  68  76 N3        30.06R
DTN SHREVEPORT CLEAR     77  70  79 CALM      30.05S

$$

LAZ014-016-220600-
NORTHEAST LOUISIANA

CITY           SKY/WX    TMP DP  RH WIND       PRES   REMARKS
MONROE         PTCLDY    76  71  85 CALM      30.06R
TALLULAH       CLEAR     72  69  90 W5        30.03S

$$




USA.gov is the U.S. government's official web portal to all federal, state and local government web resources and services.